#timestamp,LO_Frequency,Hit,StdDev 
1456776015.8,286047003.4,N
1456776035.7,286047001.0,N
1456776055.5,286047000.2,N
1456776075.3,286047004.0,N
1456776095.2,286047001.7,N
1456776115.9,286047003.1,N
1456776135.7,286047007.1,Y
1456776155.6,286047006.8,P
1456776175.4,286047006.7,N
1456776195.2,286047006.9,N
1456776215.1,286047006.9,N
1456776216.0,286047006.9,N
1456776235.8,286047005.3,N
1456776255.6,286047006.9,Y
1456776275.5,286047000.9,P
1456776295.3,286046998.7,N
1456776315.1,286046998.5,N
1456776335.9,286047000.6,N
1456776355.7,286047000.2,N
1456776375.5,286046999.8,N
1456776395.4,286047000.9,N
1456776415.2,286047000.5,N
1456776435.0,286047000.5,N
1456776435.9,286047000.5,N
1456776455.8,286047000.6,N
1456776475.6,286047000.6,N
1456776495.4,286047000.3,N
1456776515.3,286047000.4,N
1456776535.1,286046998.7,N
1456776536.0,286046998.7,N
1456776555.8,286047000.3,N
1456776575.6,286046998.5,N
1456776595.5,286047000.3,N
1456776615.3,286046999.4,N
1456776635.1,286046996.8,N
1456776655.9,286047000.9,N
1456776675.7,286047000.5,N
1456776695.5,286046999.3,N
1456776715.4,286046997.7,N
1456776735.2,286046998.7,N
1456776755.0,286046997.3,N
1456776755.9,286046997.3,N
1456776775.8,286046995.8,N
1456776795.6,286046991.9,Y
1456776815.4,286046991.2,P
1456776835.3,286046993.6,N
1456776855.1,286046995.2,N
1456776856.0,286046995.2,N
1456776875.8,286046995.6,N
1456776895.7,286046994.2,N
1456776915.5,286046990.6,Y
1456776935.3,286046996.0,P
1456776955.2,286046995.4,P
1456776975.9,286046994.4,P
1456776995.7,286046992.9,Y
1456777015.6,286046993.8,P
1456777035.4,286046996.0,P
1456777055.2,286046997.6,N
1456777075.1,286046998.5,N
1456777076.0,286046998.5,N
1456777095.8,286046999.5,N
1456777115.6,286046999.1,N
1456777135.5,286047000.9,N
1456777155.3,286047000.4,N
1456777175.1,286046998.6,N
1456777195.8,286046996.5,N
1456777215.7,286046998.0,N
1456777235.5,286046995.7,N
1456777255.3,286046996.3,N
1456777275.2,286046995.2,N
1456777295.9,286046997.4,N
1456777315.7,286046996.3,N
1456777335.6,286046993.6,Y
1456777355.4,286046999.6,P
1456777375.2,286046995.4,P
1456777395.1,286046997.7,N
1456777396.0,286046997.7,N
1456777415.8,286046994.9,Y
1456777435.6,286046998.1,P
1456777455.5,286046998.5,P
1456777475.3,286046998.2,P
1456777495.1,286047000.4,N
1456777515.9,286047001.4,N
1456777535.7,286047001.3,N
1456777555.5,286047008.8,Y
1456777575.4,286047007.4,P
1456777595.2,286047008.0,N
1456777615.0,286047011.9,P
1456777615.9,286047011.9,N
1456777635.8,286047011.9,N
1456777655.6,286047015.5,Y
1456777675.4,286047005.2,P
1456777695.3,286047004.7,N
1456777715.1,286047008.2,P
1456777716.0,286047008.2,Y
1456777735.8,286047000.9,P
1456777755.7,286047000.3,N
1456777775.5,286046998.9,N
1456777795.3,286047002.5,N
1456777815.2,286047001.9,N
1456777835.9,286047004.1,N
1456777855.7,286047004.2,N
1456777875.6,286047003.4,N
1456777895.4,286047004.7,N
1456777915.2,286047006.5,N
1456777935.0,286047001.6,N
1456777935.9,286047001.6,N
1456777955.8,286047001.3,N
1456777975.6,286047001.7,N
1456777995.4,286047004.2,N
1456778015.3,286047004.2,N
1456778035.1,286047002.3,N
1456778055.8,286047000.7,N
1456778075.7,286047001.2,N
1456778095.5,286047000.2,N
1456778115.3,286047002.1,N
1456778135.2,286047003.9,N
1456778155.9,286047003.8,N
1456778175.7,286047001.6,N
1456778195.6,286046999.9,N
1456778215.4,286046999.7,N
1456778235.2,286047002.4,N
1456778255.0,286047001.7,N
1456778255.9,286047001.7,N
1456778275.8,286047000.2,N
1456778295.6,286047000.8,N
1456778315.4,286046998.8,N
1456778335.3,286046999.7,N
1456778355.1,286047001.3,N
1456778375.8,286047001.5,N
1456778395.7,286047000.6,N
1456778415.5,286047001.9,N
1456778435.3,286047000.3,N
1456778455.2,286047000.9,N
1456778475.9,286046996.9,N
1456778495.7,286046995.4,Y
1456778515.6,286046994.6,P
1456778535.4,286046995.5,N
1456778555.2,286046994.9,N
1456778575.1,286046997.3,N
1456778576.0,286046997.3,N
1456778595.8,286046996.6,N
1456778615.6,286046995.1,N
1456778635.4,286046998.0,N
1456778655.3,286046991.9,Y
1456778675.1,286046995.5,P
1456778695.9,286046999.8,N
1456778715.7,286046996.7,N
1456778735.5,286046995.3,N
1456778755.3,286046996.1,N
1456778775.2,286046993.3,Y
1456778795.0,286047001.2,P
1456778795.9,286047001.2,N
1456778815.8,286047001.9,N
1456778835.6,286047004.1,N
1456778855.4,286047001.7,N
1456778875.2,286047002.5,N
1456778895.1,286047003.5,N
1456778896.0,286047003.5,N
1456778915.8,286047003.5,N
1456778935.6,286047005.7,N
1456778955.5,286047007.0,Y
1456778975.3,286047006.2,P
1456778995.1,286047010.6,P
1456779015.9,286047010.9,P
1456779035.7,286047014.0,Y
1456779055.5,286047004.5,P
1456779075.4,286047006.0,P
1456779095.2,286047003.4,N
1456779115.0,286047010.3,Y
1456779115.9,286047010.3,P
1456779135.8,286047006.8,N
1456779155.6,286047006.0,N
1456779175.4,286047004.3,N
1456779195.3,286047003.9,N
1456779215.1,286047001.8,N
1456779235.8,286047002.8,N
1456779255.7,286047004.5,N
1456779275.5,286047003.3,N
1456779295.3,286047003.3,N
1456779315.2,286047002.9,N
1456779335.9,286047005.5,N
1456779355.7,286047007.1,Y
1456779375.6,286046998.5,P
1456779395.4,286047000.4,N
1456779415.2,286046999.0,N
1456779435.0,286047001.2,N
1456779436.0,286047001.2,N
1456779455.8,286047002.0,N
1456779475.6,286046997.1,N
1456779495.4,286046995.9,N
1456779515.3,286046999.1,N
1456779535.1,286046995.0,N
1456779555.8,286046995.2,N
1456779575.7,286046994.8,N
1456779595.5,286046992.1,N
